Location: Newark
(27.9675°N, 86.8869°E)
Time: 10:35:05
(UTC+00:00)

Vanguard 3 - Pass Details

Date: 23 October 2019
Orbit: 507 x 3263 km, 33.4° (Epoch: 20 November)

Event Time Altitude Azimuth Distance (km) Brightness Sun altitude
Rises 19:56:16 0° 290° (WNW) 2,596 - -57.6°
Reaches altitude 10° 19:58:20 10° 296° (WNW) 1,731 - -57.2°
Maximum altitude 20:01:58 52° 14° (NNE) 722 - -56.4°
Drops below altitude 10° 20:06:46 10° 91° (E) 2,274 - -55.4°
Exits shadow 20:09:34 - 96° (E) 3,425 10.8 -54.9°
Sets 20:09:51 0° 96° (E) 3,537 10.9 -54.8°
